User: anonymous   Login
Location: *
(49.1466°N, 1.6216°E)
Time: 12:11:10
(UTC+00:00)
Language:

Cosmos 1766 - Orbit

View from above orbital plane
View from above orbital plane
View from above satellite
View from above satellite

Ground track
Ground track

The orbit data is extracted from the following two-line orbital elements,

1 16881U 86055A   24056.69674946  .00010628  00000-0  47498-3 0  9998
2 16881  82.5041 144.1201 0011796 312.7998  47.2244 15.21143692 29684
Epoch (UTC): 25 February 2024 16:43:19
Eccentricity: 0.0011796
inclination: 82.5041°
perigee height: 494 km
apogee height: 510 km
right ascension of ascending node: 144.1201°
argument of perigee: 312.7998°
revolutions per day: 15.21143692
mean anomaly at epoch: 47.2244°
orbit number at epoch: 2968

The dashed part of the orbit path shows where the satellite is in the earth's shadow,  

DLR